Weather reports worldwide

Advertisment
Leconfield, United Kingdom (3382): temperature & dewpoint: 17.09.2017 06:00:00 - 23.09.2017 06:00:00 (BST)Leconfield, United Kingdom (3382): temperature -20cm & temperature -100cm: 17.09.2017 06:00:00 - 23.09.2017 06:00:00 (BST)Leconfield, United Kingdom (3382): wind speed: 17.09.2017 06:00:00 - 23.09.2017 06:00:00 (BST)Leconfield, United Kingdom (3382): wind direction: 17.09.2017 06:00:00 - 23.09.2017 06:00:00 (BST)Leconfield, United Kingdom (3382): reduced air pressure: 17.09.2017 06:00:00 - 23.09.2017 06:00:00 (BST)Leconfield, United Kingdom (3382): visibility: 17.09.2017 06:00:00 - 23.09.2017 06:00:00 (BST)Leconfield, United Kingdom (3382): sunshine duration: 17.09.2017 06:00:00 - 23.09.2017 06:00:00 (BST)Leconfield, United Kingdom (3382): precipitation: 17.09.2017 06:00:00 - 23.09.2017 06:00:00 (BST)
Date & Time tt [°C] td [°C] tt -20cm [°C] tt -100cm [°C] ff [km/h] ff [kn] dd ppp [hPa] vv [km] sd [min] rr [mm]
23.09.2017 06:00:00 12,0 11,1 - - 5 3 SSE 1019,3 10 0 0,0
23.09.2017 05:00:00 11,9 10,9 - - 8 4 S 1019,2 10 0 0,0
23.09.2017 04:00:00 12,0 10,8 - - 9 5 S 1019,2 10 0 0,0
23.09.2017 03:00:00 12,2 10,9 - - 9 5 S 1019,3 10 0 0,0
23.09.2017 02:00:00 12,8 11,2 - - 5 3 S 1019,5 10 0 0,0
23.09.2017 01:00:00 13,0 11,2 - - 8 4 S 1019,6 10 - 0,0
23.09.2017 00:00:00 13,0 11,3 - - 8 4 S 1019,5 10 0 0,0
22.09.2017 23:00:00 12,9 11,3 - - 8 4 SSE 1019,5 10 0 0,0
22.09.2017 22:00:00 12,9 11,1 - - 9 5 S 1019,4 10 0 0,2
22.09.2017 21:00:00 12,9 11,3 - - 8 4 S 1019,6 10 0 0,2
22.09.2017 20:00:00 12,7 11,2 - - 5 3 SE 1019,2 10 0 0,0
22.09.2017 19:00:00 13,5 10,5 - - 9 5 S 1019,0 10 0 0,0
22.09.2017 18:00:00 14,0 9,8 - - 11 6 SSW 1019,1 10 0 0,4
22.09.2017 17:00:00 15,7 8,8 - - 11 6 S 1018,7 10 0 0,0
22.09.2017 16:00:00 15,9 8,5 - - 16 9 SSW 1018,9 10 12 0,0
22.09.2017 15:00:00 15,4 8,9 - - 15 8 S 1018,8 10 30 0,0
22.09.2017 14:00:00 16,1 9,3 - - 15 8 S 1018,9 10 48 0,0
22.09.2017 13:00:00 15,4 9,2 - - 16 9 SSW 1019,4 10 54 0,0
22.09.2017 12:00:00 14,1 9,6 - - 16 9 SSW 1019,5 10 60 0,0
22.09.2017 11:00:00 13,9 10,4 - - 13 7 SSW 1019,7 10 60 0,0
22.09.2017 10:00:00 12,6 10,5 13,7 13,7 5 3 SE 1019,6 10 60 0,0
22.09.2017 09:00:00 8,9 8,9 - - 2 1 ESE 1019,7 10 60 0,0
22.09.2017 08:00:00 4,2 4,1 - - 2 1 ESE 1019,5 0,6 18 0,0
22.09.2017 07:00:00 3,3 3,2 - - 2 1 ESE 1019,1 0,2 0 0,0
22.09.2017 06:00:00 4,2 4,0 - - 2 1 ESE 1018,6 0,7 0 0,0
22.09.2017 05:00:00 4,6 4,2 - - 2 1 SSE 1018,5 0,3 0 0,0
22.09.2017 04:00:00 6,6 6,2 - - 5 3 SW 1018,5 9 0 0,0
22.09.2017 03:00:00 6,3 5,7 - - 5 3 WSW 1018,5 2,7 0 0,0
22.09.2017 02:00:00 7,9 7,3 - - 5 3 WNW 1018,2 10 0 0,0
22.09.2017 01:00:00 8,3 7,5 - - 4 2 W 1017,8 10 - 0,0
22.09.2017 00:00:00 9,4 8,4 - - 9 5 W 1017,0 10 0 0,0
21.09.2017 23:00:00 9,9 8,6 - - 5 3 WNW 1016,5 10 0 0,0
21.09.2017 22:00:00 10,6 9,2 - - 11 6 WSW 1015,8 10 0 0,0
21.09.2017 21:00:00 11,4 9,7 - - 11 6 W 1015,3 10 0 0,0
21.09.2017 20:00:00 12,7 10,9 - - 11 6 W 1014,6 10 0 0,2
21.09.2017 19:00:00 13,4 12,4 - - 9 5 W 1013,5 10 0 0,8
21.09.2017 18:00:00 13,2 12,1 - - 8 4 WNW 1012,8 6 0 2,8
21.09.2017 17:00:00 13,8 12,4 - - 15 8 W 1012,4 10 0 1,6
21.09.2017 16:00:00 15,4 14,1 - - 18 10 SSW 1011,8 9 0 0,6
21.09.2017 15:00:00 16,5 13,6 - - 21 11 SSW 1011,5 9 0 0,0
21.09.2017 14:00:00 16,7 13,5 - - 16 9 SSW 1011,4 10 0 0,0
21.09.2017 13:00:00 16,4 13,9 - - 16 9 S 1011,5 10 0 0,0
21.09.2017 12:00:00 16,0 13,8 - - 15 8 S 1011,2 10 0 0,0
21.09.2017 11:00:00 15,6 13,7 - - 21 11 S 1011,0 10 0 0,0
21.09.2017 10:00:00 15,2 13,4 13,9 13,7 21 11 S 1011,2 10 6 0,0
21.09.2017 09:00:00 14,0 13,3 - - 13 7 S 1011,5 9 0 0,2
21.09.2017 08:00:00 14,2 13,1 - - 9 5 SSE 1011,4 10 0 0,0
21.09.2017 07:00:00 13,9 13,1 - - 11 6 S 1011,2 10 0 0,0
21.09.2017 06:00:00 13,9 13,2 - - 9 5 S 1011,4 9 0 0,0
21.09.2017 05:00:00 13,8 13,2 - - 9 5 S 1011,5 6 0 0,0
21.09.2017 04:00:00 13,7 13,2 - - 13 7 S 1012,0 6 0 0,2
21.09.2017 03:00:00 13,6 13,0 - - 9 5 S 1012,1 5 0 1,0
21.09.2017 02:00:00 13,7 12,7 - - 13 7 SSW 1012,5 10 0 0,0
21.09.2017 01:00:00 13,8 12,6 - - 13 7 SSW 1012,6 10 - 0,0
21.09.2017 00:00:00 14,9 11,8 - - 11 6 S 1012,4 10 0 0,0
20.09.2017 23:00:00 15,3 11,4 - - 15 8 S 1012,5 10 0 0,0
20.09.2017 22:00:00 15,7 11,6 - - 15 8 SSW 1012,6 10 0 0,0
20.09.2017 21:00:00 15,9 11,8 - - 11 6 S 1012,8 10 0 0,0
20.09.2017 20:00:00 15,9 11,3 - - 9 5 S 1012,9 10 0 0,0
20.09.2017 19:00:00 16,6 11,4 - - 11 6 S 1013,0 10 0 0,0
20.09.2017 18:00:00 16,8 11,7 - - 13 7 SSW 1013,2 10 6 0,0
20.09.2017 17:00:00 17,4 12,0 - - 16 9 SSW 1013,5 10 0 0,0
20.09.2017 16:00:00 18,1 12,6 - - 21 11 SW 1013,9 10 0 0,0
20.09.2017 15:00:00 17,4 12,3 - - 18 10 SSW 1014,1 10 0 0,0
20.09.2017 14:00:00 16,6 12,3 - - 15 8 SSW 1014,5 10 18 0,0
20.09.2017 13:00:00 16,7 12,3 - - 13 7 SSW 1014,8 10 48 0,0
20.09.2017 12:00:00 16,0 12,4 - - 13 7 SSW 1015,3 10 18 0,0
20.09.2017 11:00:00 14,0 11,6 - - 9 5 SSW 1015,9 10 0 0,0
20.09.2017 10:00:00 12,5 10,6 13,5 13,7 9 5 SSW 1016,1 10 0 0,0
20.09.2017 09:00:00 11,7 10,0 - - 4 2 S 1016,2 10 0 0,0
20.09.2017 08:00:00 10,4 9,9 - - 4 2 SSW 1016,4 10 0 0,0
20.09.2017 07:00:00 8,9 8,0 - - 2 1 SSW 1016,7 7 0 0,0
20.09.2017 06:00:00 9,0 8,7 - - 5 3 SW 1016,8 10 0 0,0
20.09.2017 05:00:00 6,8 6,3 - - 4 2 WSW 1017,1 4,5 0 0,0
20.09.2017 04:00:00 6,7 5,8 - - 0 0 N 1017,4 6 0 0,0
20.09.2017 03:00:00 8,6 7,3 - - 8 4 SW 1017,8 10 0 0,0
20.09.2017 02:00:00 7,2 6,4 - - 5 3 WSW 1018,2 10 0 0,0
20.09.2017 01:00:00 8,5 7,2 - - 5 3 WSW 1018,4 10 - 0,0
20.09.2017 00:00:00 8,4 7,0 - - 8 4 SW 1018,8 10 0 0,0
19.09.2017 23:00:00 7,9 6,9 - - 8 4 SW 1019,2 10 0 0,0
19.09.2017 22:00:00 8,4 7,3 - - 5 3 SW 1019,2 10 0 0,0
19.09.2017 21:00:00 9,8 8,1 - - 5 3 WSW 1019,4 10 0 0,0
19.09.2017 20:00:00 11,0 8,2 - - 5 3 SW 1019,4 10 0 0,0
19.09.2017 19:00:00 13,4 7,7 - - 8 4 WSW 1019,2 10 42 0,0
19.09.2017 18:00:00 15,3 8,0 - - 11 6 WSW 1019,1 10 60 0,0
19.09.2017 17:00:00 16,3 7,1 - - 13 7 W 1019,3 10 54 0,0
19.09.2017 16:00:00 15,6 7,1 - - 15 8 WSW 1019,8 10 18 0,0
19.09.2017 15:00:00 15,9 6,8 - - 15 8 WSW 1020,0 10 54 0,0
19.09.2017 14:00:00 14,5 6,8 - - 11 6 W 1020,3 10 42 0,0
19.09.2017 13:00:00 - - - - 9 5 WSW - 29 60 0,2
19.09.2017 12:00:00 - - - - 9 5 WNW - 30 60 0,2
19.09.2017 11:00:00 - - - - 9 5 W - 10 54 0,0
19.09.2017 10:00:00 12,4 9,3 13,7 13,9 8 4 NW 1020,6 10 60 0,0
19.09.2017 09:00:00 10,2 8,6 - - 5 3 NW 1020,3 10 60 0,0
19.09.2017 08:00:00 7,6 7,1 - - 4 2 W 1019,9 10 48 0,0
19.09.2017 07:00:00 7,2 6,7 - - 9 5 WNW 1019,7 10 0 0,0
19.09.2017 06:00:00 7,7 7,0 - - 11 6 WNW 1019,7 10 0 0,0
19.09.2017 05:00:00 7,0 6,5 - - 8 4 W 1019,3 6 0 0,0
19.09.2017 04:00:00 8,2 7,2 - - 11 6 W 1019,4 8 0 0,0
19.09.2017 03:00:00 9,5 7,8 - - 9 5 WNW 1019,3 10 0 0,0
19.09.2017 02:00:00 10,0 8,0 - - 8 4 WNW 1019,4 10 0 0,0
19.09.2017 01:00:00 10,3 8,2 - - 9 5 WNW 1019,3 10 - 0,0
19.09.2017 00:00:00 10,4 8,2 - - 8 4 WNW 1019,0 10 0 0,0
18.09.2017 23:00:00 10,8 8,5 - - 9 5 WNW 1019,0 10 0 0,0
18.09.2017 22:00:00 10,9 8,5 - - 11 6 WNW 1018,8 10 0 0,0
18.09.2017 21:00:00 10,7 8,5 - - 8 4 WNW 1018,7 10 0 0,0
18.09.2017 20:00:00 11,0 8,4 - - 5 3 NW 1018,6 10 0 0,0
18.09.2017 19:00:00 11,4 8,1 - - 5 3 NNW 1018,0 10 0 0,0
18.09.2017 18:00:00 11,9 7,5 - - 9 5 N 1017,9 10 0 0,0
18.09.2017 17:00:00 13,1 8,2 - - 13 7 N 1017,5 10 0 0,0
18.09.2017 16:00:00 13,7 7,3 - - 11 6 N 1017,6 10 0 0,0
18.09.2017 15:00:00 13,7 7,6 - - 15 8 NNW 1017,6 10 0 0,0
18.09.2017 14:00:00 14,0 7,7 - - 15 8 NNW 1017,6 10 0 0,0
18.09.2017 13:00:00 14,6 9,0 - - 15 8 N 1017,4 10 0 0,0
18.09.2017 12:00:00 13,7 8,6 - - 15 8 NNW 1017,3 35 0 0,0
18.09.2017 11:00:00 13,5 8,8 - - 21 11 N 1017,1 10 24 0,0
18.09.2017 10:00:00 13,5 9,6 13,7 14,0 21 11 N 1017,1 10 54 0,0
18.09.2017 09:00:00 12,7 10,4 - - 13 7 N 1016,9 10 60 0,0
18.09.2017 08:00:00 10,9 9,7 - - 11 6 WNW 1016,8 10 18 0,0
18.09.2017 07:00:00 10,6 9,4 - - 11 6 NNW 1016,5 10 0 0,0
18.09.2017 06:00:00 10,6 9,5 - - 9 5 NW 1016,2 10 0 0,0
18.09.2017 05:00:00 10,6 9,5 - - 9 5 NNW 1015,9 10 0 0,0
18.09.2017 04:00:00 10,5 9,4 - - 8 4 NW 1015,9 10 0 0,0
18.09.2017 03:00:00 10,8 9,6 - - 11 6 N 1016,1 10 0 0,8
18.09.2017 02:00:00 12,1 11,4 - - 11 6 NNW 1016,0 10 0 1,0
18.09.2017 01:00:00 11,4 11,0 - - 8 4 NW 1016,2 10 - 0,0
18.09.2017 00:00:00 10,7 9,5 - - 4 2 NNE 1016,2 10 0 2,6
17.09.2017 23:00:00 12,1 10,9 - - 9 5 N 1016,2 9 0 0,2
17.09.2017 22:00:00 11,7 11,1 - - 8 4 NW 1015,9 10 0 0,0
17.09.2017 21:00:00 12,0 11,1 - - 5 3 NW 1015,8 10 0 0,0
17.09.2017 20:00:00 12,6 11,4 - - 9 5 N 1015,3 10 0 0,0
17.09.2017 19:00:00 13,7 11,7 - - 9 5 NNE 1014,5 10 30 0,0
17.09.2017 18:00:00 13,8 11,6 - - 13 7 N 1014,3 10 18 0,0
17.09.2017 17:00:00 16,0 11,2 - - 18 10 NE 1013,9 10 30 0,0
17.09.2017 16:00:00 15,2 11,2 - - 15 8 NNW 1013,7 10 54 0,0
17.09.2017 15:00:00 14,8 10,3 - - 13 7 NNW 1014,0 10 42 0,0
17.09.2017 14:00:00 16,2 11,3 - - 15 8 NNW 1013,9 10 48 0,0
17.09.2017 13:00:00 16,4 11,9 - - 21 11 NNE 1013,9 10 24 0,0
17.09.2017 12:00:00 14,9 12,3 - - 16 9 N 1014,0 10 18 0,0
17.09.2017 11:00:00 13,6 12,1 - - 13 7 N 1014,3 10 18 0,2
17.09.2017 10:00:00 14,3 12,2 13,7 14,2 13 7 NNE 1014,2 10 60 0,0
17.09.2017 09:00:00 11,8 11,7 - - 8 4 NNW 1014,0 10 60 0,0
17.09.2017 08:00:00 9,4 9,4 - - 8 4 NW 1013,7 10 48 0,0
17.09.2017 07:00:00 8,1 8,0 - - 5 3 NW 1013,3 0,4 0 0,0
17.09.2017 06:00:00 6,5 6,3 - - 5 3 WNW 1012,8 0,5 0 0,0

tt = temperature
td = dewpoint
tt -20cm = temperature -20cm
tt -100cm = temperature -100cm
ff = wind speed
dd = wind direction
ppp = reduced air pressure
vv = visibility
sd = sunshine duration
rr = precipitation

Next stations